Back to catalog

CZ-4 DEB

AlivePO
NORAD 26122·DEBRIS·🇨🇳 China

Launched Oct 14, 1999 from Taiyuan Satellite Launch Center

Loading…

Next Passes (next 24 hours)

TLE

FreshSource: Space-Track

Epoch: Sep 14, 2026, 14:46 UTC

1 26122U 99057J   26257.61577502  .00001742  00000-0  13552-2 0  9990
2 26122  98.9456  11.8886 0525224 193.1411 181.8756 13.43347432291998

Track CZ-4 DEB in real time with AllMySat

Download on the App Store